Content
SEND FEEDBACK

Daily
Averages
Monthly
Summary
United States of America

POTTS JUNCTION, GUAM


Home > North America > United States > Guam
Elevation: 360 feet     Latitude: 13 33N     Longitude: 144 50E

WEATHER
 
SELECT A DAY
Number of Records: 209,165;   Date Range: 1/1/95 - 8/30/14
 
SHARE

PRINT THIS DATA

[ ← Previous Day ]
WEATHER ALMANAC - MARCH 6, 2013
[ Next Day → ]
[ °C ]   °F
Weather ElementAverageHighLow
Temperature81.5 °F87.8 °F (10:52 am)78.1 °F (4:54 am)
Dewpoint74.2 °F77 °F (1:33 pm)69.1 °F (8:54 am)
Humidity79 %89 % (2:23 am)59 % (8:54 am)
Barometer29.90 in29.96 in (10:19 am)29.84 in (2:54 pm)
Wind Speed15.5 mph24.2 mph (10:54 am)
Wind Gust36.8 mph (6:54 pm)
Weather ElementAverage
Visibility7.5 mi
Wind DirectionENE (67.6 °)

Weather ElementTotal
Precipitation0.32 in
Cooling Degree Days18 (Base 65)
Growing Degree Days33 (Base 50)
Averaged from 42 records on March 6, 2013
WEATHER CONDITIONS BREAKOUT
WIND DIRECTION BREAKOUT
WEATHER BY HOUR - MARCH 6, 2013
[ °C ]   °F
Local TimeTemperatureDewpointHumidityBarometerVisibilityWind DirectionWind SpeedGust SpeedPrecipitationEventsConditions
1:54 AM80.1 °F75.0 °F85 %29.92 in10.0 miENE (60°)9.2 mph0.01 inMostly Cloudy
2:12 AM80.6 °F75.2 °F84 %29.93 in10.0 miENE (60°)6.9 mphMostly Cloudy
2:23 AM78.8 °F75.2 °F89 %29.93 in10.0 miNE (50°)6.9 mphScattered Clouds
2:54 AM79.0 °F73.9 °F84 %29.89 in10.0 miENE (60°)8.1 mphClear
3:54 AM79.0 °F72.0 °F79 %29.88 in10.0 miENE (70°)9.2 mphClear
4:54 AM78.1 °F72.0 °F81 %29.87 in10.0 miENE (60°)9.2 mphClear
5:54 AM78.1 °F71.1 °F79 %29.88 in10.0 miENE (60°)8.1 mphPartly Cloudy
6:54 AM79.0 °F71.1 °F77 %29.91 in10.0 miENE (60°)11.5 mphPartly Cloudy
7:54 AM82.0 °F72.0 °F71 %29.92 in10.0 miENE (70°)11.5 mphPartly Cloudy
8:54 AM84.9 °F69.1 °F59 %29.94 in10.0 miNE (50°)19.6 mph24.2 mphPartly Cloudy
9:54 AM86.0 °F72.0 °F63 %29.94 in10.0 miNE (50°)16.1 mphPartly Cloudy
10:19 AM86.0 °F71.6 °F62 %29.96 in10.0 miENE (60°)20.7 mphMostly Cloudy
10:52 AM87.8 °F73.4 °F62 %29.95 in10.0 miENE (60°)21.9 mphMostly Cloudy
10:54 AM86.0 °F73.0 °F65 %29.92 in10.0 miNE (50°)24.2 mph27.6 mphOvercast
11:22 AM82.4 °F75.2 °F79 %29.94 in2.5 miENE (70°)19.6 mph0.00 inRainLight Rain
11:25 AM80.6 °F75.2 °F84 %29.94 in1.8 miEast (80°)16.1 mph25.3 mph0.01 inRainLight Rain
11:32 AM80.6 °F75.2 °F84 %29.93 in5.0 miENE (70°)16.1 mph0.01 inRainLight Rain
11:54 AM84.9 °F75.9 °F74 %29.90 in10.0 miENE (70°)20.7 mph25.3 mph0.01 inMostly Cloudy
12:54 PM86.0 °F73.0 °F65 %29.87 in10.0 miENE (70°)19.6 mph29.9 mph0.00 inRainLight Rain
1:33 PM82.4 °F77.0 °F84 %29.89 in2.0 miEast (80°)20.7 mph31.1 mph0.01 inRainHeavy Rain
1:36 PM80.6 °F75.2 °F84 %29.89 in1.5 miEast (80°)20.7 mph31.1 mph0.03 inRainHeavy Rain
1:49 PM80.6 °F75.2 °F84 %29.88 in2.0 miEast (80°)18.4 mph26.5 mph0.04 inRainLight Rain
1:54 PM80.1 °F75.9 °F87 %29.86 in2.5 miENE (70°)21.9 mph26.5 mph0.04 inRainLight Rain
1:59 PM80.6 °F75.2 °F84 %29.88 in3.0 miENE (60°)21.9 mph27.6 mph0.00 inRainLight Rain
2:54 PM84.9 °F77.0 °F77 %29.84 in10.0 miENE (70°)17.3 mph0.00 inOvercast
3:27 PM84.2 °F75.2 °F74 %29.86 in10.0 miENE (70°)16.1 mphOvercast
3:54 PM82.9 °F75.9 °F79 %29.84 in9.0 miENE (70°)10.4 mph24.2 mphMostly Cloudy
4:06 PM82.4 °F75.2 °F79 %29.86 in7.0 miENE (60°)17.3 mph0.00 inRainLight Rain
4:16 PM82.4 °F75.2 °F79 %29.86 in10.0 miNE (50°)13.8 mph0.00 inMostly Cloudy
4:54 PM84.0 °F73.9 °F72 %29.85 in10.0 miNE (50°)17.3 mph0.00 inOvercast
5:09 PM80.6 °F75.2 °F84 %29.88 in2.5 miENE (70°)18.4 mph27.6 mph0.00 inRainRain
5:18 PM80.6 °F75.2 °F84 %29.88 in2.0 miENE (70°)13.8 mph25.3 mph0.01 inRainLight Rain
5:27 PM80.6 °F75.2 °F84 %29.89 in10.0 miEast (80°)16.1 mph23.0 mph0.01 inOvercast
5:54 PM80.1 °F73.9 °F81 %29.88 in10.0 miENE (60°)16.1 mph25.3 mph0.01 inOvercast
6:54 PM79.0 °F75.0 °F88 %29.89 in5.0 miEast (80°)21.9 mph36.8 mph0.02 inRainLight Rain
7:54 PM79.0 °F73.9 °F84 %29.90 in10.0 miEast (80°)10.4 mph0.00 inScattered Clouds
8:54 PM78.1 °F73.9 °F87 %29.93 in4.0 miEast (80°)19.6 mph26.5 mph0.05 inRainLight Rain
9:06 PM78.8 °F73.4 °F83 %29.94 in6.0 miEast (80°)13.8 mph25.3 mph0.01 inRainLight Rain
9:54 PM81.0 °F75.0 °F82 %29.94 in6.0 miEast (80°)13.8 mph20.7 mph0.01 inRainLight Rain
10:54 PM79.0 °F75.0 °F88 %29.93 in4.0 miEast (80°)13.8 mph24.2 mph0.02 inRainLight Rain
11:01 PM80.6 °F75.2 °F84 %29.95 in9.0 miEast (80°)11.5 mph0.01 inRainLight Rain
11:54 PM81.0 °F75.0 °F82 %29.93 in10.0 miEast (80°)12.7 mph0.01 inMostly Cloudy
Hourly data recorded from PGUM, located miles away from Potts Junction, Guam







STORIES FROM OUR PARTNERS